Simultaneous Nadir Overpasses (SNOs) Predictions

Prediction of SNOs between LANDSAT-8 and METOP-A Satellite Orbit:

Table of predicted SNOs for the next 14.0 days since TLE Epoch: 2/22/2020
Index Date (LANDSAT-8) Time (LANDSAT-8) Lat,Lon (LANDSAT-8) SZA (LANDSAT-8 ) Date (METOP-A) Time (METOP-A) Lat,Lon (METOP-A) SZA (METOP-A ) Distance(km) Time Diff (sec)
1 02/24/2020 21:44:00 81.48, -99.82 93.09 02/24/2020 21:43:37 81.48, -99.65 93.10 2.89 23
2 02/24/2020 22:33:27 -81.48, 67.73 86.94 02/24/2020 22:34:17 -81.48, 67.93 86.90 3.28 50
3 02/27/2020 17:18:14 81.49, -33.21 92.08 02/27/2020 17:18:00 81.48, -33.23 92.06 1.09 14
4 02/27/2020 18:07:41 -81.49, 134.37 87.95 02/27/2020 18:08:40 -81.48, 134.36 87.93 1.05 59
5 03/01/2020 12:52:28 81.48, 32.99 91.00 03/01/2020 12:52:22 81.48, 33.16 91.02 2.83 6
6 03/01/2020 13:41:55 -81.48,-159.40 89.02 03/01/2020 13:43:02 -81.48,-159.22 88.98 2.95 67
7 03/04/2020 07:37:16 -81.49, -68.11 90.04 03/04/2020 07:36:05 -81.49, -68.13 90.07 0.39 71
8 03/04/2020 08:26:42 81.49, 99.57 89.96 03/04/2020 08:26:45 81.48, 99.54 89.95 0.78 3




NCC Satellite Simultaneous Nadir Overpasses (SNOs) Prediction Service
